Terminal Aerodrome Forecast
Issued by NWS Sterling, VA

Current Version | Previous Version | Graphics & Text | Print | Product List | Glossary On
Versions: 1 2 3 4 5 6 7 8 9 10 11 12 13 14 15 16 17 18 19 20 21 22 23 24 25
000
FTUS41 KLWX 151446 AAA
TAFIAD
TAF AMD
KIAD 151446Z 1515/1618 36008G16KT P6SM BKN200
     FM160200 VRB03KT P6SM FEW200
     FM161600 12009KT P6SM SCT200=

USA.gov is the U.S. government's official web portal to all federal, state and local government web resources and services.